Juneau, AK

8:32 PM AKDT on July 24, 2017 (GMT -0800)
Juneau International

Weather History for PAJN - March, 2014

Change the Weather History Date:

Sunday, March 9, 2014

  Actual Average Record
Temperature  
Mean Temperature 37 °F 32 °F  
Max Temperature 40 °F 38 °F 48 °F (1984)
Min Temperature 33 °F 27 °F -10 °F (1956)
Degree Days  
Heating Degree Days 28 33  
Month to date heating degree days 363 298  
Since 1 July heating degree days 6004 6135  
Cooling Degree Days 0 0  
Month to date cooling degree days 0 0  
Year to date cooling degree days 0 0  
Moisture  
Dew Point 34 °F    
Average Humidity 93    
Maximum Humidity 100    
Minimum Humidity 85    
Precipitation  
Precipitation 0.09 in 0.13 in 0.90 in (1966)
Month to date precipitation 1.07 1.21  
Year to date precipitation 13.20 10.69  
Snow  
Snow 0.00 in 0.40 in 17.70 in (1966)
Month to date snowfall 2.2 4.3  
Since 1 July snowfall 93.0 78.3  
Snow Depth 2.00 in    
Sea Level Pressure  
Sea Level Pressure 29.44 in    
Wind  
Wind Speed 13 mph (East)    
Max Wind Speed 24 mph    
Max Gust Speed 31 mph    
Visibility 9 miles    
Events Rain    
T = Trace of Precipitation, MM = Missing Value Source: NWS Daily Summary

Daily Weather History Graph

Daily Weather History Graph

Search for Another Location

Airport or City:

Trip Planner

Search our weather history database for the weather conditions in past years. The results will help you decide how hot, cold, wet, or windy it might be!

Date:

Astronomy

Mar. 09, 2014 Rise Set
Actual Time 7:30 AM AKDT 6:47 PM AKDT
Civil Twilight 6:51 AM AKDT 7:27 PM AKDT
Nautical Twilight 6:05 AM AKDT 8:13 PM AKDT
Astronomical Twilight 5:17 AM AKDT 9:01 PM AKDT
Moon 11:48 AM AKDT (3/9) 4:01 AM AKDT (3/9)
Length of Visible Light 12h 35m
Length of Day
11h 17m
Waxing Gibbous, 62% of the Moon is Illuminated
Mar 9
Waxing Gibbous
Mar 16
Full
Mar 23
Last Quarter
Mar 30
New
Apr 7
First Quarter

Hourly Weather History & Observations

Time (AKDT) Temp. Windchill Dew Point Humidity Pressure Visibility Wind Dir Wind Speed Gust Speed Precip Events Conditions
12:53 AM 33.1 °F - 32.0 °F 96% 29.21 in 6.0 mi Calm Calm - 0.00 in Rain Light Rain
1:47 AM 33.8 °F 29.6 °F 32.0 °F 93% 29.23 in 4.0 mi West 4.6 mph - 0.01 in Rain Light Rain
1:53 AM 34.0 °F 31.0 °F 32.0 °F 92% 29.23 in 4.0 mi NW 3.5 mph - 0.01 in Rain Light Rain
3:47 AM 35.6 °F 29.2 °F 33.8 °F 93% 29.24 in 4.0 mi East 8.1 mph - 0.03 in Rain Light Rain
3:53 AM 37.0 °F 30.4 °F 35.1 °F 93% 29.24 in 4.0 mi ENE 9.2 mph - 0.03 in Rain Light Rain
4:46 AM 37.9 °F 31.5 °F 35.1 °F 89% 29.25 in 10.0 mi East 9.2 mph - 0.00 in Rain Light Rain
4:53 AM 37.9 °F 30.9 °F 35.1 °F 89% 29.25 in 10.0 mi East 10.4 mph - 0.01 in Rain Light Rain
5:53 AM 37.9 °F 27.3 °F 35.1 °F 89% 29.25 in 10.0 mi ESE 21.9 mph 27.6 mph 0.00 in Rain Light Rain
6:53 AM 37.9 °F 27.9 °F 35.1 °F 89% 29.28 in 10.0 mi ESE 19.6 mph 27.6 mph 0.00 in Rain Light Rain
7:48 AM 37.4 °F 27.2 °F 35.6 °F 93% 29.30 in 10.0 mi ESE 19.6 mph - 0.01 in Rain Light Rain
7:53 AM 39.0 °F 29.3 °F 35.1 °F 86% 29.30 in 10.0 mi ESE 19.6 mph - 0.01 in Rain Light Rain
8:53 AM 37.9 °F 29.2 °F 35.1 °F 89% 29.34 in 10.0 mi ESE 15.0 mph - 0.02 in Rain Light Rain
9:53 AM 37.9 °F 30.5 °F 35.1 °F 89% 29.38 in 10.0 mi ESE 11.5 mph - 0.00 in Rain Light Rain
10:06 AM 37.9 °F 30.0 °F 35.1 °F 89% 29.39 in 10.0 mi ESE 12.7 mph - 0.00 in Rain Light Rain
10:53 AM 37.9 °F 30.0 °F 35.1 °F 89% 29.42 in 10.0 mi East 12.7 mph - 0.00 in Rain Light Rain
11:04 AM 39.0 °F 31.8 °F 35.1 °F 86% 29.41 in 10.0 mi East 11.5 mph - 0.00 in Rain Light Rain
11:53 AM 39.0 °F 32.8 °F 36.0 °F 89% 29.44 in 10.0 mi East 9.2 mph - 0.01 in Rain Light Rain
12:53 PM 39.9 °F 30.8 °F 35.1 °F 83% 29.46 in 10.0 mi ESE 18.4 mph - 0.00 in Rain Light Rain
1:53 PM 39.9 °F 31.1 °F 35.1 °F 83% 29.48 in 10.0 mi ESE 17.3 mph - 0.00 in Rain Light Rain
2:53 PM 39.0 °F 29.3 °F 35.1 °F 86% 29.51 in 10.0 mi ESE 19.6 mph 24.2 mph 0.00 in Rain Light Rain
3:53 PM 39.0 °F 34.0 °F 35.1 °F 86% 29.54 in 10.0 mi ENE 6.9 mph - 0.00 in   Overcast
4:53 PM 39.9 °F 35.1 °F 35.1 °F 83% 29.56 in 10.0 mi ENE 6.9 mph - N/A   Overcast
5:53 PM 37.9 °F 34.4 °F 35.1 °F 89% 29.58 in 10.0 mi NE 4.6 mph - 0.00 in Rain Light Rain
6:53 PM 39.0 °F 35.7 °F 33.1 °F 79% 29.61 in 10.0 mi Variable 4.6 mph - 0.01 in   Overcast
7:53 PM 35.1 °F 31.0 °F 34.0 °F 96% 29.64 in 10.0 mi ENE 4.6 mph - N/A   Overcast
8:53 PM 36.0 °F 32.1 °F 34.0 °F 93% 29.66 in 10.0 mi East 4.6 mph - N/A   Overcast
9:53 PM 37.0 °F 32.4 °F 34.0 °F 89% 29.70 in 10.0 mi East 5.8 mph - N/A   Overcast
10:53 PM 37.0 °F 33.3 °F 34.0 °F 89% 29.72 in 10.0 mi ENE 4.6 mph - N/A   Overcast
11:53 PM 37.0 °F 33.3 °F 33.1 °F 86% 29.75 in 7.0 mi Variable 4.6 mph - 0.00 in Rain Light Rain
12:53 AM 35.1 °F 31.0 °F 33.1 °F 92% 29.78 in 10.0 mi West 4.6 mph - 0.00 in   Overcast